Find Yaogan 31 hao 03 zu 01 xing

NORAD ID: 47691 Int'l Des: 2021-014 Owner: ZLZB Country: CN Constellation: yaogan operational
LEO

Aktuelle Ansicht

3D-Globus wird geladen...

Über Yaogan 31 hao 03 zu 01 xing

Beschreibung wird geladen...

Nächste Überflüge

Passes for default location (London). Set your location on the main map for personalized predictions.

Höhenverlauf

Loading altitude history...

Zweizeiliger Elementsatz

1 47691U 21014A 26150.84835175 -.00000027 00000-0 97016-4 0 9997
2 47691 63.4044 242.4083 0175545 0.5838 359.5361 13.45448163258448
Epoch: 30. Mai 2026 • Age: 7 hours

Aktueller Status

Höhe 1045.8 km
Geschwindigkeit 7.36 km/s
Subsatellitenpunkt -52.25°S, 94.96°W
Startdatum 24. Feb. 2021
Alter 5.2 years
Typ military

Technische Details

Klassifizierung Payload
Masse 500.00 kg
Trockenmasse 500.00 kg
Gesamtmasse 500.00 kg
Länge 0.50 m
Durchmesser 0.50 m
Spannweite 1.00 m
Form Box + 2 Pan
Hersteller DFHZ
Bus-Typ JB-8B
Phasenstatus In Orbit
Besitzer/Staat ZLZB/CN

Most Searched